This demonstration page uses our WeatherBlox Daily Observations layout. Learn more.

36.17497, -115.13722

Hourly Observations for November 1, 2018

Temp ( °F °C ) Dew Point ( °F °C ) Humidity (%) Winds ( mph kmh ) Pressure ( in mb ) Visibility ( mi km ) Precip ( " mm )
12:53 am 00:53 Clear 58 14.4 6 -14.4 12 12 NNW 10 17 30.12 1020 10 16.09344 0 0
1:53 am 01:53 Clear 58 14.4 7 -13.9 13 13 N 8 13 30.12 1020 10 16.09344 0 0
2:53 am 02:53 Clear 58 14.4 7 -13.9 13 13 NNW 14 22 30.12 1020 10 16.09344 0 0
3:53 am 03:53 Clear 57 13.9 7 -13.9 13 13 NNW 14 22 30.12 1020 10 16.09344 0 0
4:53 am 04:53 Clear 57 13.9 8 -13.3 14 14 N 9 15 30.12 1020 10 16.09344 0 0
5:53 am 05:53 Clear 59 15 10 -12.2 14 14 N 10 17 30.15 1021 10 16.09344 0 0
6:53 am 06:53 Clear 54 12.2 13 -10.6 19 19 NNW 7 11 30.15 1021 10 16.09344 0 0
7:53 am 07:53 Sunny 59 15 16 -8.9 18 18 N 12 19 30.18 1022 10 16.09344 0 0
8:53 am 08:53 Sunny 63 17.2 19 -7.2 18 18 N 13 20 30.18 1022 10 16.09344 0 0
9:53 am 09:53 Sunny 68 20 21 -6.1 17 17 NNW 6 9 30.18 1022 10 16.09344 0 0
10:53 am 10:53 Sunny 70 21.1 21 -6.1 16 16 NE 9 15 30.18 1022 10 16.09344 0 0
11:53 am 11:53 Sunny 74 23.3 31 -0.6 20 20 NNW 12 19 30.15 1021 10 16.09344 0 0
12:53 pm 12:53 Sunny 75 23.9 32 0 21 21 N 18 30 30.12 1020 10 16.09344 0 0
1:53 pm 13:53 Sunny 77 25 33 0.6 20 20 NNW 18 30 30.09 1019 10 16.09344 0 0
2:53 pm 14:53 Sunny 76 24.4 30 -1.1 18 18 E 9 15 30.09 1019 10 16.09344 0 0
3:53 pm 15:53 Sunny 77 25 31 -0.6 18 18 E 8 13 30.09 1019 10 16.09344 0 0
4:53 pm 16:53 Sunny 78 25.6 34 1.1 20 20 N 9 15 30.09 1019 10 16.09344 0 0
5:53 pm 17:53 Clear 74 23.3 33 0.6 22 22 NNE 3 6 30.09 1019 10 16.09344 0 0
6:53 pm 18:53 Clear 73 22.8 33 0.6 23 23 E 3 6 30.12 1020 10 16.09344 0 0
7:53 pm 19:53 Clear 71 21.7 34 1.1 26 26 N 3 6 30.12 1020 10 16.09344 0 0
8:53 pm 20:53 Clear 67 19.4 34 1.1 30 30 Calm 30.12 1020 10 16.09344 0 0
9:53 pm 21:53 Clear 67 19.4 35 1.7 31 31 ENE 3 6 30.12 1020 10 16.09344 0 0
10:53 pm 22:53 Clear 66 18.9 34 1.1 30 30 NE 5 7 30.15 1021 10 16.09344 0 0
11:53 pm 23:53 Clear 65 18.3 34 1.1 32 32 NNE 5 7 30.15 1021 10 16.09344 0 0

Powered by AerisWeather